Elwood, KS

1:29 PM CST on December 05, 2016 (GMT -0600)
Rosecrans Memorial

Weather History for KSTJ - January, 2015

Change the Weather History Date:

Saturday, January 24, 2015

  Actual Average Record
Temperature  
Mean Temperature 41 °F 28 °F  
Max Temperature 59 °F 38 °F 68 °F (1981)
Min Temperature 22 °F 18 °F -9 °F (1963)
Degree Days  
Heating Degree Days 24 37  
Month to date heating degree days 930 911  
Since 1 July heating degree days 3142 3124  
Cooling Degree Days 0 0  
Month to date cooling degree days 0 0  
Year to date cooling degree days 0 0  
Moisture  
Dew Point 29 °F    
Average Humidity 68    
Maximum Humidity 100    
Minimum Humidity 35    
Precipitation  
Precipitation 0.03 in 0.02 in 0.53 in (1967)
Month to date precipitation 0.03 0.41  
Year to date precipitation 0.03 0.41  
Sea Level Pressure  
Sea Level Pressure 29.85 in    
Wind  
Wind Speed 8 mph (SW)    
Max Wind Speed 18 mph    
Max Gust Speed 26 mph    
Visibility 10 miles    
Events Rain    
T = Trace of Precipitation, MM = Missing Value Source: NWS Daily Summary

Daily Weather History Graph

Daily Weather History Graph

Search for Another Location

Airport or City:

Trip Planner

Search our weather history database for the weather conditions in past years. The results will help you decide how hot, cold, wet, or windy it might be!

Date:

Astronomy

Jan. 24, 2015 Rise Set
Actual Time 7:34 AM CST 5:29 PM CST
Civil Twilight 7:05 AM CST 5:58 PM CST
Nautical Twilight 6:32 AM CST 6:31 PM CST
Astronomical Twilight 6:00 AM CST 7:03 PM CST
Moon 10:04 AM CST (1/24) 10:47 PM CST (1/24)
Length of Visible Light 10h 53m
Length of Day
9h 55m
Waxing Crescent, 24% of the Moon is Illuminated
Jan 24
Waxing Crescent
Jan 26
First Quarter
Feb 3
Full
Feb 11
Last Quarter
Feb 18
New

Hourly Weather History & Observations

Time (CST) Temp. Windchill Dew Point Humidity Pressure Visibility Wind Dir Wind Speed Gust Speed Precip Events Conditions
12:53 AM 28.9 °F 19.8 °F 21.0 °F 72% 29.99 in 10.0 mi NW 10.4 mph - N/A   Clear
1:53 AM 30.0 °F 21.7 °F 24.1 °F 79% 29.98 in 10.0 mi NW 9.2 mph - N/A   Clear
2:53 AM 30.9 °F 27.5 °F 25.0 °F 79% 29.98 in 10.0 mi NW 3.5 mph - N/A   Clear
3:53 AM 24.1 °F - 21.0 °F 88% 29.99 in 10.0 mi Calm Calm - N/A   Clear
4:53 AM 24.1 °F 19.7 °F 21.9 °F 91% 29.98 in 10.0 mi SSE 3.5 mph - N/A   Clear
5:53 AM 27.0 °F 19.5 °F 25.0 °F 92% 29.99 in 10.0 mi SW 6.9 mph - N/A   Clear
6:53 AM 26.1 °F 20.5 °F 25.0 °F 96% 29.99 in 10.0 mi SW 4.6 mph - N/A   Clear
7:53 AM 25.0 °F 19.3 °F 25.0 °F 100% 29.99 in 10.0 mi SSW 4.6 mph - N/A   Clear
8:53 AM 30.9 °F 24.3 °F 28.0 °F 89% 29.97 in 10.0 mi SSW 6.9 mph - N/A   Clear
9:53 AM 36.0 °F 30.3 °F 28.9 °F 76% 29.96 in 10.0 mi SSW 6.9 mph - N/A   Clear
10:53 AM 46.0 °F 41.4 °F 30.0 °F 54% 29.93 in 10.0 mi West 9.2 mph - N/A   Clear
11:53 AM 51.1 °F - 30.9 °F 46% 29.89 in 10.0 mi SW 9.2 mph - N/A   Clear
12:53 PM 57.0 °F - 30.9 °F 37% 29.83 in 10.0 mi West 15.0 mph - N/A   Clear
1:53 PM 55.9 °F - 30.0 °F 37% 29.79 in 10.0 mi WSW 15.0 mph - N/A   Clear
2:53 PM 55.9 °F - 30.0 °F 37% 29.76 in 10.0 mi SW 15.0 mph - N/A   Clear
3:53 PM 55.0 °F - 28.9 °F 37% 29.75 in 10.0 mi WSW 13.8 mph - N/A   Clear
4:53 PM 53.1 °F - 30.0 °F 41% 29.74 in 10.0 mi SSW 5.8 mph - N/A   Clear
5:53 PM 46.9 °F - 28.0 °F 48% 29.74 in 10.0 mi South 3.5 mph - N/A   Clear
6:53 PM 45.0 °F 41.8 °F 28.0 °F 52% 29.73 in 10.0 mi SSW 5.8 mph - N/A   Scattered Clouds
7:53 PM 45.0 °F 43.5 °F 28.9 °F 53% 29.71 in 10.0 mi South 3.5 mph - N/A   Overcast
8:53 PM 46.9 °F - 35.1 °F 63% 29.72 in 10.0 mi West 13.8 mph - 0.00 in Rain Light Rain
9:53 PM 44.1 °F 39.5 °F 39.0 °F 82% 29.70 in 10.0 mi WSW 8.1 mph - 0.02 in Rain Light Rain
10:53 PM 42.1 °F 38.4 °F 39.9 °F 92% 29.67 in 10.0 mi SSW 5.8 mph - 0.00 in Rain Light Rain
11:53 PM 45.0 °F 38.9 °F 41.0 °F 86% 29.65 in 10.0 mi West 12.7 mph - 0.01 in   Overcast